Simultaneous Nadir Overpasses (SNOs) Predictions

Prediction of SNOs between METOP-B and TERRA Satellite Orbit:

Table of predicted SNOs for the next 14.0 days since TLE Epoch: 1/3/2016
Index Date (METOP-B) Time (METOP-B) Lat,Lon (METOP-B) SZA (METOP-B ) Date (TERRA) Time (TERRA) Lat,Lon (TERRA) SZA (TERRA ) Distance(km) Time Diff (sec)
1 01/03/2016 18:49:35 -81.34, 125.33 73.30 01/03/2016 18:50:28 -81.34, 125.26 73.28 1.29 53
2 01/03/2016 19:40:15 81.34, -67.15 106.73 01/03/2016 19:39:54 81.34, -67.00 106.73 2.53 21
3 01/06/2016 14:23:56 -81.34,-168.30 73.64 01/06/2016 14:24:44 -81.34,-168.20 73.61 1.69 48
4 01/06/2016 15:14:35 81.35, -0.41 106.43 01/06/2016 15:14:10 81.35, -0.49 106.41 1.41 25
5 01/09/2016 09:58:17 -81.34,-101.97 74.04 01/09/2016 09:59:00 -81.34,-101.80 74.00 2.73 43
6 01/0
